| time (UTC) | temp F | wind direction | speed MPH | gust MPH | rain 1hr in | rain 24hr in | rain mn in | humidity % | barometer mb |
| 20260502163007 | 46 | 316 | 4.0 | 8.0 | 0.00 | 0.00 | 0.00 | 59 | 991.1 |
| 20260502161506 | 47 | 295 | 3.0 | 8.0 | 0.00 | 0.00 | 0.00 | 60 | 991.1 |
| 20260502151605 | 45 | 353 | 2.0 | 5.0 | 0.00 | 0.00 | 0.00 | 64 | 991.2 |
| 20260502123036 | 39 | 323 | 1.0 | 6.0 | 0.00 | 0.00 | 0.00 | 73 | 990.7 |
| 20260502121540 | 39 | 310 | 1.0 | 4.0 | 0.00 | 0.00 | 0.00 | 72 | 990.5 |
| 20260502114526 | 38 | 36 | 0.0 | 0.0 | 0.00 | 0.00 | 0.00 | 75 | 990.1 |
| 20260502113026 | 38 | 37 | 0.0 | 0.0 | 0.00 | 0.00 | 0.00 | 77 | 990.0 |
| 20260502111528 | 35 | 36 | 0.0 | 0.0 | 0.00 | 0.00 | 0.00 | 84 | 990.1 |
| 20260502110027 | 33 | 36 | 0.0 | 0.0 | 0.00 | 0.00 | 0.00 | 83 | 990.1 |
| 20260502104525 | 32 | 36 | 0.0 | 2.0 | 0.00 | 0.01 | 0.00 | 84 | 990.0 |
| 20260502103028 | 30 | 36 | 0.0 | 0.0 | 0.00 | 0.01 | 0.00 | 86 | 989.9 |
| 20260502101534 | 32 | 36 | 0.0 | 0.0 | 0.00 | 0.01 | 0.00 | 86 | 989.9 |
| 20260502091511 | 34 | 36 | 0.0 | 0.0 | 0.00 | 0.01 | 0.00 | 82 | 989.7 |
| 20260502070101 | 40 | 333 | 0.0 | 3.0 | 0.00 | 0.10 | 0.00 | 78 | 989.7 |
| 20260502064550 | 40 | 323 | 0.0 | 2.0 | 0.00 | 0.12 | 0.00 | 77 | 989.7 |
| 20260502063048 | 40 | 323 | 0.0 | 2.0 | 0.00 | 0.12 | 0.00 | 77 | 989.7 |
| 20260502061548 | 40 | 324 | 0.0 | 2.0 | 0.00 | 0.12 | 0.00 | 76 | 989.8 |
| 20260502060045 | 40 | 323 | 1.0 | 3.0 | 0.00 | 0.12 | 0.00 | 75 | 990.0 |
| 20260502054545 | 40 | 326 | 1.0 | 3.0 | 0.00 | 0.14 | 0.00 | 76 | 990.1 |
| 20260502053042 | 40 | 326 | 0.0 | 3.0 | 0.00 | 0.14 | 0.00 | 76 | 990.1 |
| 20260502051550 | 41 | 344 | 1.0 | 3.0 | 0.00 | 0.14 | 0.00 | 76 | 990.1 |
| 20260502050042 | 41 | 343 | 1.0 | 3.0 | 0.00 | 0.14 | 0.00 | 76 | 989.9 |
| 20260502044539 | 41 | 345 | 1.0 | 4.0 | 0.00 | 0.15 | 0.00 | 77 | 990.0 |
| 20260502043035 | 41 | 352 | 0.0 | 2.0 | 0.00 | 0.15 | 0.00 | 77 | 990.1 |
| 20260502041554 | 41 | 352 | 0.0 | 0.0 | 0.00 | 0.15 | 0.00 | 78 | 990.0 |
| 20260502040032 | 41 | 345 | 0.0 | 2.0 | 0.00 | 0.15 | 0.00 | 76 | 990.1 |
| 20260502034531 | 42 | 41 | 0.0 | 4.0 | 0.00 | 0.15 | 0.15 | 75 | 990.2 |
| 20260502033032 | 42 | 347 | 1.0 | 3.0 | 0.00 | 0.15 | 0.15 | 75 | 990.0 |
| 20260502031530 | 43 | 296 | 0.0 | 6.0 | 0.00 | 0.15 | 0.15 | 75 | 990.0 |
| 20260502030028 | 43 | 35 | 0.0 | 4.0 | 0.00 | 0.15 | 0.15 | 74 | 989.8 |
| 20260502024527 | 43 | 27 | 0.0 | 5.0 | 0.00 | 0.15 | 0.15 | 74 | 989.8 |
| 20260502023026 | 42 | 318 | 0.0 | 2.0 | 0.00 | 0.15 | 0.15 | 76 | 989.5 |
| 20260502021524 | 43 | 318 | 0.0 | 1.0 | 0.00 | 0.15 | 0.15 | 74 | 989.3 |
| 20260502020023 | 44 | 340 | 0.0 | 2.0 | 0.00 | 0.15 | 0.15 | 72 | 989.1 |
| 20260502014527 | 44 | 340 | 1.0 | 3.0 | 0.00 | 0.15 | 0.15 | 71 | 988.9 |
| 20260502013019 | 44 | 340 | 2.0 | 4.0 | 0.00 | 0.15 | 0.15 | 69 | 988.7 |
| 20260502011517 | 44 | 328 | 1.0 | 3.0 | 0.00 | 0.15 | 0.15 | 69 | 988.3 |
| 20260502010022 | 45 | 320 | 2.0 | 5.0 | 0.00 | 0.15 | 0.15 | 67 | 988.1 |
| 20260502004515 | 46 | 339 | 2.0 | 6.0 | 0.00 | 0.15 | 0.15 | 66 | 987.8 |
| 20260502003014 | 46 | 328 | 3.0 | 4.0 | 0.00 | 0.15 | 0.15 | 65 | 988.0 |
| 20260502001514 | 47 | 325 | 1.0 | 6.0 | 0.00 | 0.15 | 0.15 | 65 | 988.0 |
| 20260502000016 | 48 | 321 | 1.0 | 6.0 | 0.00 | 0.15 | 0.15 | 62 | 987.9 |
| 20260501234513 | 49 | 332 | 1.0 | 6.0 | 0.00 | 0.15 | 0.15 | 62 | 987.9 |
| 20260501233012 | 49 | 322 | 4.0 | 8.0 | 0.00 | 0.15 | 0.15 | 61 | 987.8 |
| 20260501231510 | 49 | 300 | 3.0 | 8.0 | 0.00 | 0.15 | 0.15 | 62 | 987.8 |
| 20260501230010 | 50 | 329 | 5.0 | 10.0 | 0.00 | 0.15 | 0.15 | 61 | 987.9 |
| 20260501224508 | 50 | 312 | 5.0 | 9.0 | 0.00 | 0.15 | 0.15 | 61 | 987.9 |
| 20260501223008 | 50 | 306 | 5.0 | 10.0 | 0.00 | 0.15 | 0.15 | 60 | 987.8 |
| 20260501221506 | 50 | 257 | 2.0 | 9.0 | 0.00 | 0.15 | 0.15 | 64 | 987.9 |
| 20260501220006 | 50 | 249 | 3.0 | 10.0 | 0.00 | 0.15 | 0.15 | 64 | 987.8 |
| 20260501214504 | 49 | 293 | 6.0 | 11.0 | 0.00 | 0.15 | 0.15 | 64 | 987.9 |
| 20260501213003 | 49 | 269 | 4.0 | 10.0 | 0.00 | 0.15 | 0.15 | 67 | 987.9 |
| 20260501211503 | 49 | 255 | 7.0 | 12.0 | 0.00 | 0.15 | 0.15 | 72 | 987.8 |
| 20260501210002 | 49 | 261 | 7.0 | 13.0 | 0.00 | 0.15 | 0.15 | 67 | 987.7 |
| 20260501204501 | 49 | 309 | 3.0 | 14.0 | 0.00 | 0.15 | 0.15 | 70 | 987.8 |
| 20260501203101 | 49 | 253 | 4.0 | 10.0 | 0.00 | 0.15 | 0.15 | 71 | 987.9 |
| 20260501201609 | 50 | 318 | 5.0 | 12.0 | 0.00 | 0.15 | 0.15 | 65 | 987.9 |
| 20260501200058 | 52 | 311 | 5.0 | 0.0 | 0.00 | 0.00 | 0.15 | 67 | 987.8 |
| 20260501194556 | 50 | 298 | 2.0 | 7.0 | 0.00 | 0.15 | 0.15 | 70 | 987.8 |
| 20260501193054 | 49 | 295 | 4.0 | 10.0 | 0.00 | 0.15 | 0.15 | 68 | 987.8 |
| 20260501191600 | 49 | 306 | 3.0 | 9.0 | 0.00 | 0.15 | 0.15 | 70 | 987.7 |
| 20260501190052 | 49 | 320 | 4.0 | 7.0 | 0.00 | 0.15 | 0.15 | 68 | 987.7 |
| 20260501184551 | 50 | 314 | 5.0 | 10.0 | 0.00 | 0.15 | 0.15 | 66 | 987.5 |
| 20260501183100 | 49 | 260 | 4.0 | 11.0 | 0.00 | 0.15 | 0.15 | 70 | 987.5 |
| 20260501181554 | 50 | 265 | 8.0 | 14.0 | 0.00 | 0.15 | 0.15 | 69 | 987.4 |
| 20260501180058 | 50 | 260 | 8.0 | 11.0 | 0.00 | 0.15 | 0.15 | 74 | 987.2 |
| 20260501174603 | 49 | 301 | 5.0 | 11.0 | 0.00 | 0.15 | 0.15 | 73 | 987.5 |
| 20260501173047 | 49 | 314 | 5.0 | 10.0 | 0.00 | 0.15 | 0.15 | 72 | 987.5 |
| 20260501171547 | 49 | 328 | 2.0 | 8.0 | 0.00 | 0.15 | 0.15 | 74 | 987.5 |